Weather Roundup
Issued by NWS Springfield, MO

Home | Current Version | Previous Version | Text Only | Print | Product List | Glossary On
Versions: 1 2 3 4 5 6 7 8 9 10 11 12 13 14 15 16 17 18 19 20 21 22 23 24 25 26 27 28 29 30 31 32 33 34 35 36 37 38 39 40 41 42 43 44 45 46 47 48 49 50
000
NZUS99 KSGF 161807
HRRSGF

HOURLY WEATHER
NATIONAL WEATHER SERVICE SPRINGFIELD MO
100 PM CDT TUE SEP 16 2014

......SGF CWA......

CITY           SKY/WX    TMP DP  RH WIND       PRES   REMARKS
SPRINGFIELD    CLOUDY    69  57  65 E5        30.16F
6HR MIN TEMP:  63; 6HR MAX TEMP:  69;

JOPLIN         CLOUDY    67  61  81 VRB7      30.16F
6HR MIN TEMP:  59; 6HR MAX TEMP:  67; 6HR PCP: TRACE;

WEST PLAINS    CLOUDY    66  57  72 VRB5      30.19F
6HR MIN TEMP:  62; 6HR MAX TEMP:  66;

ROLLA          CLOUDY    61  55  81 CALM      30.18F
6HR MIN TEMP:  55; 6HR MAX TEMP:  61;

OSAGE BEACH    CLOUDY    64  55  72 SE3       30.19F
BRANSON        CLOUDY    68  61  77 N5        30.18F

......SURROUNDING SGF CWA......

CITY           SKY/WX    TMP DP  RH WIND       PRES   REMARKS
CHANUTE        MOSUNNY   71  59  65 VRB3      30.16F
PARSONS        CLOUDY    70  60  70 VRB5      30.17F
COFFEYVILLE    CLOUDY    68  50  53 MISG      30.16F
EMPORIA        SUNNY     69  50  50 VRB3      30.16F
GROVE OK       CLOUDY    70  70 100 N3        30.15F
ROGERS AR      CLOUDY    69  66  90 N6        30.16S
SILOAM SPRINGS CLOUDY    73  66  78 N9        30.15F
HARRISON AR    CLOUDY    66  64  93 NE5       30.17F
NEAR YELLVILLE CLOUDY    66  57  72 NE5       30.16F

......KANSAS AND MISSOURI......

CITY           SKY/WX    TMP DP  RH WIND       PRES   REMARKS
KANSAS CTY INT MOSUNNY   64  52  64 VRB5      30.18F
DOWNTOWN KC    SUNNY     67  51  56 NE7       30.17F
COLUMBIA       SUNNY     67  54  63 N7        30.19F
SEDALIA        CLOUDY    64  54  69 CALM      30.19F
ST JOSEPH      SUNNY     64  51  62 E6        30.19F
ST LOUIS       CLOUDY    63  53  70 CALM      30.20F
SPIRIT OF STL  PTSUNNY   64  53  67 N5        30.19F
KIRKSVILLE     SUNNY     63  47  55 CALM      30.21F
WICHITA        CLOUDY    70  54  56 E6        30.15F
TOPEKA         SUNNY     68  50  52 VRB5      30.17F
OLATHE         SUNNY     66  54  65 CALM      30.17F

......TENNESSEE......

CITY           SKY/WX    TMP DP  RH WIND       PRES   REMARKS
MEMPHIS        CLOUDY    74  66  76 NE6       30.11F
NASHVILLE      CLOUDY    69  62  78 N10       30.12F

......ARKANSAS.......

CITY           SKY/WX    TMP DP  RH WIND       PRES   REMARKS
FAYETTEVILLE   CLOUDY    75  70  84 NW9       30.13F
FT SMITH       CLOUDY    81  69  67 NW7       30.09F
LITTLE ROCK    CLOUDY    77  67  71 NE5       30.12F

......OKLAHOMA.......

CITY           SKY/WX    TMP DP  RH WIND       PRES   REMARKS
TULSA          CLOUDY    72  61  68 N7        30.13F
PONCA CITY     CLOUDY    69  60  73 E9        30.15F
MCALESTER      MOSUNNY   84  69  60 CALM      30.11F
OKLAHOMA CITY  MOSUNNY   84  70  61 VRB3      30.12F

......IOWA............

CITY           SKY/WX    TMP DP  RH WIND       PRES   REMARKS
DES MOINES     MOSUNNY   65  45  48 S7        30.19F
QUAD CITIES    SUNNY     65  42  43 NW8       30.20F

......ILLINOIS........

CITY           SKY/WX    TMP DP  RH WIND       PRES   REMARKS
QUINCY         SUNNY     64  47  53 VRB3      30.20F
CHICAGO        MOSUNNY   63  39  41 NW6       30.17F




USA.gov is the U.S. government's official web portal to all federal, state and local government web resources and services.